| time (UTC) | temp F | wind direction | speed knots | gust knots | rain 1hr in | rain 24hr in | rain mn in | humidity % | barometer mb |
| 20260502130600 | 56 | 5 | 6.1 | 15.6 | 0.00 | 2.25 | 0.00 | 86 | 1019.5 |
| 20260502130107 | 56 | 321 | 8.7 | 16.5 | 0.00 | 2.25 | 0.00 | 87 | 1019.4 |
| 20260502123555 | 55 | 9 | 8.7 | 13.9 | 0.00 | 2.25 | 0.00 | 89 | 1019.2 |
| 20260502123055 | 55 | 321 | 7.8 | 13.0 | 0.00 | 2.25 | 0.00 | 90 | 1019.1 |
| 20260502122556 | 55 | 16 | 6.1 | 13.0 | 0.00 | 2.25 | 0.00 | 91 | 1019.0 |
| 20260502122055 | 55 | 302 | 8.7 | 13.0 | 0.00 | 2.25 | 0.00 | 90 | 1018.8 |
| 20260502121605 | 55 | 360 | 7.8 | 13.0 | 0.00 | 2.25 | 0.00 | 90 | 1018.7 |
| 20260502121055 | 55 | 309 | 7.0 | 13.0 | 0.00 | 2.25 | 0.00 | 91 | 1018.7 |
| 20260502120555 | 55 | 360 | 7.0 | 11.3 | 0.00 | 2.25 | 0.00 | 91 | 1018.7 |
| 20260502120115 | 55 | 24 | 4.3 | 10.4 | 0.00 | 2.25 | 0.00 | 91 | 1018.6 |
| 20260502115558 | 55 | 321 | 6.1 | 10.4 | 0.00 | 2.25 | 0.00 | 91 | 1018.6 |
| 20260502115056 | 55 | 13 | 5.2 | 10.4 | 0.00 | 2.25 | 0.00 | 91 | 1018.5 |
| 20260502114615 | 55 | 22 | 5.2 | 10.4 | 0.00 | 2.25 | 0.00 | 91 | 1018.6 |
| 20260502114056 | 55 | 36 | 5.2 | 10.4 | 0.00 | 2.25 | 0.00 | 91 | 1018.5 |
| 20260502113556 | 55 | 13 | 6.1 | 12.2 | 0.00 | 2.25 | 0.00 | 91 | 1018.4 |
| 20260502113113 | 55 | 19 | 5.2 | 12.2 | 0.00 | 2.25 | 0.00 | 91 | 1018.3 |
| 20260502112555 | 55 | 5 | 6.1 | 12.2 | 0.00 | 2.25 | 0.00 | 91 | 1018.2 |
| 20260502112055 | 55 | 5 | 7.0 | 11.3 | 0.00 | 2.25 | 0.00 | 91 | 1018.1 |
| 20260502111604 | 55 | 321 | 7.0 | 13.9 | 0.00 | 2.25 | 0.00 | 91 | 1017.9 |
| 20260502111058 | 55 | 5 | 6.1 | 13.9 | 0.00 | 2.25 | 0.00 | 91 | 1017.9 |
| 20260502110555 | 55 | 5 | 8.7 | 13.9 | 0.00 | 2.25 | 0.00 | 91 | 1017.8 |
| 20260502110106 | 55 | 321 | 7.8 | 12.2 | 0.00 | 2.25 | 0.00 | 91 | 1017.8 |
| 20260502105555 | 55 | 311 | 7.8 | 12.2 | 0.00 | 2.25 | 0.00 | 91 | 1017.7 |
| 20260502105055 | 56 | 5 | 6.1 | 13.0 | 0.00 | 2.25 | 0.00 | 91 | 1017.6 |
| 20260502104603 | 56 | 302 | 6.1 | 13.0 | 0.00 | 2.25 | 0.00 | 91 | 1017.5 |
| 20260502104057 | 56 | 321 | 7.0 | 13.0 | 0.00 | 2.25 | 0.00 | 91 | 1017.6 |
| 20260502103552 | 56 | 321 | 6.1 | 10.4 | 0.00 | 2.25 | 0.00 | 91 | 1017.5 |
| 20260502103114 | 56 | 41 | 5.2 | 10.4 | 0.00 | 2.25 | 0.00 | 92 | 1017.3 |
| 20260502102555 | 56 | 12 | 6.1 | 10.4 | 0.00 | 2.25 | 0.00 | 92 | 1017.2 |
| 20260502102056 | 56 | 320 | 5.2 | 10.4 | 0.00 | 2.25 | 0.00 | 92 | 1017.1 |
| 20260502101608 | 56 | 24 | 5.2 | 10.4 | 0.00 | 2.25 | 0.00 | 92 | 1017.0 |
| 20260502101052 | 56 | 319 | 4.3 | 8.7 | 0.00 | 2.25 | 0.00 | 92 | 1017.0 |
| 20260502100552 | 56 | 321 | 4.3 | 7.8 | 0.00 | 2.25 | 0.00 | 92 | 1016.9 |
| 20260502091051 | 56 | 5 | 5.2 | 14.8 | 0.00 | 2.25 | 0.00 | 92 | 1016.5 |
| 20260502090552 | 56 | 9 | 4.3 | 10.4 | 0.00 | 2.25 | 0.00 | 92 | 1016.4 |
| 20260502090108 | 56 | 15 | 4.3 | 10.4 | 0.00 | 2.25 | 0.00 | 92 | 1016.4 |
| 20260502071052 | 56 | 32 | 5.2 | 12.2 | 0.00 | 2.25 | 0.00 | 92 | 1015.7 |
| 20260502070556 | 56 | 42 | 7.0 | 12.2 | 0.00 | 2.25 | 0.00 | 92 | 1015.9 |
| 20260502070101 | 56 | 19 | 7.8 | 14.8 | 0.00 | 2.25 | 0.00 | 92 | 1015.7 |
| 20260502065553 | 56 | 47 | 6.1 | 14.8 | 0.00 | 2.25 | 0.00 | 92 | 1015.8 |
| 20260502065054 | 56 | 5 | 8.7 | 14.8 | 0.00 | 2.25 | 0.00 | 91 | 1015.7 |
| 20260502064600 | 56 | 22 | 8.7 | 14.8 | 0.00 | 2.25 | 0.00 | 91 | 1015.7 |
| 20260502064052 | 56 | 311 | 9.6 | 14.8 | 0.00 | 2.25 | 0.00 | 91 | 1015.6 |
| 20260502063552 | 56 | 26 | 8.7 | 16.5 | 0.00 | 2.25 | 0.00 | 91 | 1015.8 |
| 20260502063124 | 56 | 16 | 7.8 | 16.5 | 0.00 | 2.25 | 0.00 | 91 | 1015.8 |
| 20260502062556 | 56 | 11 | 9.6 | 17.4 | 0.00 | 2.25 | 0.00 | 91 | 1015.7 |
| 20260502062052 | 56 | 21 | 9.6 | 17.4 | 0.00 | 2.25 | 0.00 | 91 | 1015.8 |
| 20260502061555 | 56 | 13 | 9.6 | 17.4 | 0.00 | 2.25 | 0.00 | 91 | 1015.8 |
| 20260502061056 | 57 | 23 | 7.0 | 13.0 | 0.00 | 2.25 | 0.00 | 91 | 1015.8 |
| 20260502060553 | 57 | 22 | 7.0 | 13.0 | 0.00 | 2.25 | 0.00 | 92 | 1015.8 |
| 20260502060107 | 57 | 9 | 7.8 | 18.2 | 0.00 | 2.25 | 0.00 | 91 | 1015.8 |
| 20260502055556 | 57 | 321 | 9.6 | 18.2 | 0.00 | 2.25 | 0.00 | 91 | 1015.9 |
| 20260502055056 | 57 | 318 | 11.3 | 18.2 | 0.00 | 2.25 | 0.00 | 91 | 1015.8 |
| 20260502054620 | 57 | 5 | 11.3 | 16.5 | 0.00 | 2.25 | 0.00 | 91 | 1015.7 |
| 20260502054055 | 57 | 9 | 10.4 | 16.5 | 0.00 | 2.25 | 0.00 | 91 | 1015.6 |
| 20260502053552 | 57 | 24 | 7.8 | 14.8 | 0.00 | 2.25 | 0.00 | 92 | 1015.6 |
| 20260502053108 | 58 | 360 | 9.6 | 15.6 | 0.00 | 2.25 | 0.00 | 92 | 1015.5 |
| 20260502052552 | 58 | 321 | 7.8 | 15.6 | 0.00 | 2.25 | 0.00 | 91 | 1015.5 |
| 20260502052053 | 58 | 5 | 9.6 | 15.6 | 0.00 | 2.25 | 0.00 | 92 | 1015.4 |
| 20260502051556 | 58 | 308 | 7.0 | 17.4 | 0.00 | 2.25 | 0.00 | 92 | 1015.3 |
| 20260502051052 | 58 | 22 | 10.4 | 17.4 | 0.00 | 2.25 | 0.00 | 92 | 1015.4 |
| 20260502050555 | 58 | 25 | 9.6 | 15.6 | 0.00 | 2.25 | 0.00 | 91 | 1015.4 |
| 20260502050057 | 58 | 5 | 9.6 | 14.8 | 0.00 | 2.25 | 0.00 | 92 | 1015.3 |
| 20260502045554 | 58 | 22 | 6.1 | 14.8 | 0.00 | 2.25 | 2.25 | 92 | 1015.2 |
| 20260502045052 | 58 | 5 | 7.8 | 13.9 | 0.00 | 2.25 | 2.25 | 92 | 1015.1 |
| 20260502044553 | 58 | 5 | 8.7 | 20.0 | 0.00 | 2.25 | 2.25 | 92 | 1015.1 |
| 20260502044055 | 58 | 44 | 9.6 | 20.0 | 0.00 | 2.25 | 2.25 | 91 | 1015.1 |
| 20260502043555 | 58 | 5 | 11.3 | 21.7 | 0.00 | 2.25 | 2.25 | 91 | 1015.0 |
| 20260502043107 | 58 | 15 | 11.3 | 21.7 | 0.00 | 2.25 | 2.25 | 91 | 1015.0 |
| 20260502042552 | 58 | 11 | 10.4 | 21.7 | 0.00 | 2.25 | 2.25 | 91 | 1014.9 |
| 20260502042053 | 59 | 35 | 11.3 | 20.9 | 0.00 | 2.25 | 2.25 | 92 | 1014.9 |
| 20260502041556 | 59 | 24 | 7.8 | 17.4 | 0.00 | 2.25 | 2.25 | 92 | 1014.7 |
| 20260502041053 | 59 | 20 | 7.8 | 17.4 | 0.00 | 2.25 | 2.25 | 92 | 1014.7 |
| 20260502040552 | 59 | 321 | 9.6 | 15.6 | 0.00 | 2.25 | 2.25 | 92 | 1014.7 |
| 20260502035552 | 59 | 9 | 10.4 | 18.2 | 0.00 | 2.25 | 2.25 | 91 | 1014.7 |
| 20260502035052 | 59 | 5 | 11.3 | 20.9 | 0.01 | 2.25 | 2.25 | 91 | 1014.7 |
| 20260502034600 | 59 | 29 | 12.2 | 20.9 | 0.01 | 2.25 | 2.25 | 90 | 1014.7 |
| 20260502034053 | 59 | 30 | 12.2 | 20.9 | 0.01 | 2.25 | 2.25 | 91 | 1014.5 |
| 20260502033552 | 59 | 313 | 13.0 | 20.9 | 0.01 | 2.25 | 2.25 | 91 | 1014.5 |
| 20260502033057 | 59 | 36 | 12.2 | 20.9 | 0.01 | 2.25 | 2.25 | 91 | 1014.4 |
| 20260502032552 | 59 | 24 | 13.0 | 20.9 | 0.01 | 2.25 | 2.25 | 92 | 1014.4 |
| 20260502032052 | 59 | 38 | 8.7 | 14.8 | 0.01 | 2.25 | 2.25 | 93 | 1014.3 |
| 20260502031555 | 59 | 29 | 9.6 | 15.6 | 0.01 | 2.25 | 2.25 | 93 | 1014.1 |
| 20260502031052 | 59 | 317 | 7.0 | 15.6 | 0.01 | 2.25 | 2.25 | 92 | 1014.1 |
| 20260502030551 | 59 | 34 | 7.8 | 17.4 | 0.01 | 2.25 | 2.25 | 92 | 1014.0 |
| 20260502030106 | 59 | 32 | 10.4 | 18.2 | 0.01 | 2.25 | 2.25 | 93 | 1014.0 |
| 20260502025552 | 59 | 18 | 9.6 | 19.1 | 0.01 | 2.25 | 2.25 | 93 | 1014.0 |
| 20260502025055 | 60 | 25 | 10.4 | 19.1 | 0.00 | 2.24 | 2.24 | 93 | 1014.0 |
| 20260502024554 | 60 | 312 | 8.7 | 15.6 | 0.00 | 2.24 | 2.24 | 94 | 1013.8 |
| 20260502024055 | 60 | 13 | 7.8 | 13.9 | 0.00 | 2.24 | 2.24 | 94 | 1013.7 |
| 20260502023553 | 60 | 320 | 8.7 | 13.9 | 0.00 | 2.24 | 2.24 | 94 | 1013.5 |
| 20260502023103 | 60 | 21 | 7.8 | 13.0 | 0.00 | 2.24 | 2.24 | 94 | 1013.5 |
| 20260502022553 | 60 | 5 | 7.0 | 13.9 | 0.00 | 2.24 | 2.24 | 94 | 1013.5 |
| 20260502022054 | 60 | 29 | 7.8 | 13.9 | 0.00 | 2.24 | 2.24 | 94 | 1013.3 |
| 20260502021557 | 60 | 320 | 7.8 | 12.2 | 0.00 | 2.24 | 2.24 | 94 | 1013.1 |
| 20260502021052 | 60 | 14 | 7.8 | 13.9 | 0.00 | 2.24 | 2.24 | 94 | 1012.9 |
| 20260502020627 | 60 | 9 | 7.8 | 14.8 | 0.00 | 2.24 | 2.24 | 94 | 1012.9 |
| 20260502020056 | 60 | 35 | 7.8 | 14.8 | 0.00 | 2.24 | 2.24 | 94 | 1012.8 |
| 20260502015553 | 60 | 26 | 7.0 | 14.8 | 0.00 | 2.24 | 2.24 | 94 | 1012.6 |
| 20260502015055 | 60 | 51 | 9.6 | 14.8 | 0.00 | 2.24 | 2.24 | 94 | 1012.4 |
| 20260502014557 | 60 | 29 | 8.7 | 15.6 | 0.00 | 2.24 | 2.24 | 94 | 1012.4 |
| 20260502014054 | 60 | 23 | 8.7 | 15.6 | 0.00 | 2.24 | 2.24 | 94 | 1012.3 |
| 20260502013554 | 60 | 15 | 8.7 | 15.6 | 0.00 | 2.24 | 2.24 | 94 | 1012.3 |
| 20260502013058 | 60 | 40 | 9.6 | 15.6 | 0.00 | 2.24 | 2.24 | 94 | 1012.0 |
| 20260502012556 | 60 | 29 | 10.4 | 15.6 | 0.00 | 2.24 | 2.24 | 94 | 1012.1 |
| 20260502012052 | 60 | 5 | 8.7 | 15.6 | 0.01 | 2.24 | 2.24 | 94 | 1011.8 |
| 20260502011555 | 60 | 5 | 7.0 | 13.9 | 0.01 | 2.24 | 2.24 | 94 | 1011.9 |
| 20260502011052 | 60 | 25 | 7.8 | 16.5 | 0.01 | 2.24 | 2.24 | 94 | 1011.7 |
| 20260502010556 | 60 | 17 | 9.6 | 20.0 | 0.02 | 2.24 | 2.24 | 94 | 1011.6 |
| 20260502010058 | 60 | 34 | 11.3 | 20.0 | 0.02 | 2.24 | 2.24 | 94 | 1011.3 |
| 20260502005552 | 60 | 309 | 11.3 | 19.1 | 0.02 | 2.24 | 2.24 | 94 | 1011.5 |
| 20260502005059 | 60 | 12 | 10.4 | 19.1 | 0.02 | 2.24 | 2.24 | 94 | 1011.1 |
| 20260502004557 | 60 | 9 | 11.3 | 19.1 | 0.02 | 2.24 | 2.24 | 94 | 1011.1 |
| 20260502004051 | 61 | 17 | 10.4 | 19.1 | 0.02 | 2.24 | 2.24 | 94 | 1011.2 |
| 20260502003555 | 61 | 11 | 13.0 | 19.1 | 0.02 | 2.24 | 2.24 | 94 | 1011.1 |
| 20260502003057 | 61 | 42 | 11.3 | 17.4 | 0.03 | 2.24 | 2.24 | 95 | 1010.8 |
| 20260502002553 | 61 | 22 | 9.6 | 20.0 | 0.03 | 2.24 | 2.24 | 95 | 1011.2 |
| 20260502002051 | 61 | 316 | 11.3 | 20.0 | 0.02 | 2.23 | 2.23 | 95 | 1011.1 |
| 20260502001556 | 61 | 23 | 12.2 | 20.9 | 0.02 | 2.23 | 2.23 | 94 | 1011.0 |
| 20260502001057 | 61 | 13 | 13.9 | 22.6 | 0.02 | 2.23 | 2.23 | 94 | 1010.8 |
| 20260502000555 | 61 | 317 | 12.2 | 22.6 | 0.03 | 2.22 | 2.22 | 94 | 1011.1 |
| 20260502000058 | 61 | 15 | 13.0 | 20.9 | 0.05 | 2.22 | 2.22 | 95 | 1011.7 |
| 20260501235552 | 61 | 5 | 12.2 | 20.0 | 0.07 | 2.22 | 2.22 | 95 | 1011.4 |
| 20260501235055 | 61 | 297 | 11.3 | 19.1 | 0.08 | 2.22 | 2.22 | 95 | 1011.6 |
| 20260501234559 | 61 | 320 | 13.0 | 21.7 | 0.09 | 2.22 | 2.22 | 95 | 1011.7 |
| 20260501234052 | 61 | 30 | 13.0 | 21.7 | 0.14 | 2.22 | 2.22 | 95 | 1011.2 |
| 20260501233552 | 61 | 360 | 12.2 | 19.1 | 0.22 | 2.22 | 2.22 | 95 | 1010.8 |
| 20260501233059 | 62 | 360 | 10.4 | 21.7 | 0.32 | 2.21 | 2.21 | 95 | 1010.6 |
| 20260501232555 | 62 | 5 | 11.3 | 21.7 | 0.52 | 2.21 | 2.21 | 95 | 1010.6 |
| 20260501232051 | 62 | 303 | 12.2 | 24.3 | 0.52 | 2.21 | 2.21 | 95 | 1010.7 |
| 20260501231557 | 62 | 302 | 13.0 | 25.2 | 0.52 | 2.21 | 2.21 | 95 | 1010.4 |
| 20260501231055 | 62 | 360 | 14.8 | 25.2 | 0.52 | 2.21 | 2.21 | 95 | 1010.2 |
| 20260501230552 | 62 | 320 | 11.3 | 23.5 | 0.51 | 2.19 | 2.19 | 95 | 1010.1 |
| 20260501230101 | 62 | 17 | 13.0 | 23.5 | 0.51 | 2.17 | 2.17 | 95 | 1009.9 |
| 20260501225552 | 62 | 9 | 13.0 | 20.9 | 0.49 | 2.15 | 2.15 | 95 | 1010.2 |
| 20260501225055 | 62 | 320 | 11.3 | 20.9 | 0.48 | 2.14 | 2.14 | 95 | 1010.1 |
| 20260501224555 | 62 | 316 | 12.2 | 20.9 | 0.48 | 2.13 | 2.13 | 94 | 1010.0 |
| 20260501224055 | 63 | 360 | 10.4 | 20.9 | 0.42 | 2.07 | 2.07 | 94 | 1009.9 |
| 20260501223554 | 63 | 11 | 12.2 | 20.9 | 0.34 | 1.99 | 1.99 | 94 | 1010.4 |
| 20260501223111 | 63 | 317 | 14.8 | 20.9 | 0.23 | 1.88 | 1.88 | 94 | 1009.5 |
| 20260501222555 | 64 | 306 | 11.3 | 16.5 | 0.03 | 1.68 | 1.68 | 94 | 1010.1 |
| 20260501222052 | 63 | 13 | 8.7 | 16.5 | 0.03 | 1.68 | 1.68 | 94 | 1009.1 |
| 20260501221556 | 63 | 40 | 7.8 | 16.5 | 0.03 | 1.68 | 1.68 | 94 | 1007.6 |
| 20260501221058 | 63 | 59 | 7.0 | 17.4 | 0.03 | 1.68 | 1.68 | 93 | 1007.2 |
| 20260501220552 | 64 | 31 | 9.6 | 17.4 | 0.02 | 1.67 | 1.67 | 93 | 1007.2 |
| 20260501220055 | 64 | 37 | 5.2 | 14.8 | 0.01 | 1.66 | 1.66 | 93 | 1007.4 |
| 20260501215555 | 64 | 42 | 7.0 | 14.8 | 0.01 | 1.66 | 1.66 | 93 | 1007.5 |
| 20260501215055 | 64 | 40 | 6.1 | 16.5 | 0.01 | 1.66 | 1.66 | 93 | 1007.7 |
| 20260501214556 | 64 | 29 | 7.0 | 16.5 | 0.00 | 1.65 | 1.65 | 93 | 1008.0 |
| 20260501214052 | 64 | 38 | 7.8 | 13.9 | 0.00 | 1.65 | 1.65 | 93 | 1008.0 |
| 20260501213551 | 64 | 53 | 5.2 | 13.9 | 0.00 | 1.65 | 1.65 | 93 | 1008.1 |
| 20260501213108 | 64 | 40 | 7.0 | 14.8 | 0.00 | 1.65 | 1.65 | 93 | 1008.0 |
| 20260501212554 | 64 | 26 | 8.7 | 14.8 | 0.00 | 1.65 | 1.65 | 93 | 1008.4 |
| 20260501212055 | 64 | 23 | 7.8 | 13.9 | 0.00 | 1.65 | 1.65 | 93 | 1008.1 |
| 20260501211559 | 64 | 28 | 7.8 | 13.9 | 0.00 | 1.65 | 1.65 | 93 | 1008.3 |
| 20260501211055 | 64 | 13 | 7.8 | 13.9 | 0.00 | 1.65 | 1.65 | 93 | 1008.2 |
| 20260501210554 | 64 | 34 | 6.1 | 13.0 | 0.00 | 1.65 | 1.65 | 93 | 1008.1 |
| 20260501210056 | 64 | 19 | 7.0 | 15.6 | 0.00 | 1.65 | 1.65 | 93 | 1008.2 |
| 20260501205622 | 64 | 54 | 7.0 | 15.6 | 0.00 | 1.65 | 1.65 | 93 | 1008.2 |
| 20260501205052 | 64 | 38 | 9.6 | 15.6 | 0.00 | 1.65 | 1.65 | 93 | 1008.3 |
| 20260501204609 | 64 | 20 | 9.6 | 17.4 | 0.00 | 1.65 | 1.65 | 94 | 1008.3 |
| 20260501204052 | 64 | 22 | 10.4 | 22.6 | 0.01 | 1.65 | 1.65 | 93 | 1008.4 |
| 20260501203552 | 65 | 40 | 13.0 | 22.6 | 0.01 | 1.65 | 1.65 | 93 | 1008.5 |
| 20260501203107 | 65 | 36 | 13.0 | 20.9 | 0.01 | 1.65 | 1.65 | 93 | 1008.4 |
| 20260501202555 | 66 | 36 | 13.0 | 20.9 | 0.02 | 1.65 | 1.65 | 94 | 1008.2 |
| 20260501202052 | 66 | 37 | 9.6 | 20.0 | 0.03 | 1.65 | 1.65 | 95 | 1008.1 |
| 20260501201556 | 66 | 54 | 10.4 | 20.0 | 0.05 | 1.65 | 1.65 | 96 | 1008.1 |
| 20260501201058 | 66 | 11 | 11.3 | 18.2 | 0.35 | 1.65 | 1.65 | 97 | 1008.1 |
| 20260501200551 | 65 | 13 | 11.3 | 21.7 | 0.99 | 1.65 | 1.65 | 96 | 1007.9 |
| 20260501200057 | 64 | 360 | 13.0 | 21.7 | 1.56 | 1.65 | 1.65 | 96 | 1008.1 |
| 20260501195552 | 64 | 304 | 12.2 | 20.9 | 1.57 | 1.65 | 1.65 | 96 | 1008.0 |
| 20260501195055 | 64 | 306 | 11.3 | 20.9 | 1.57 | 1.65 | 1.65 | 96 | 1008.0 |
| 20260501194600 | 64 | 5 | 13.0 | 21.7 | 1.57 | 1.65 | 1.65 | 96 | 1008.6 |
| 20260501194056 | 63 | 10 | 11.3 | 21.7 | 1.56 | 1.64 | 1.64 | 96 | 1008.3 |
| 20260501193556 | 63 | 320 | 14.8 | 21.7 | 1.57 | 1.64 | 1.64 | 96 | 1008.6 |
| 20260501193053 | 63 | 317 | 12.2 | 20.9 | 1.57 | 1.64 | 1.64 | 96 | 1008.5 |
| 20260501192555 | 63 | 318 | 10.4 | 20.9 | 1.56 | 1.63 | 1.63 | 96 | 1008.6 |
| 20260501192055 | 63 | 17 | 13.9 | 29.5 | 1.55 | 1.62 | 1.62 | 96 | 1007.9 |
| 20260501191555 | 63 | 47 | 13.0 | 29.5 | 1.53 | 1.60 | 1.60 | 96 | 1008.1 |
| 20260501191052 | 63 | 35 | 19.1 | 33.9 | 1.20 | 1.27 | 1.27 | 95 | 1006.5 |
| 20260501190554 | 63 | 44 | 19.1 | 33.9 | 0.55 | 0.62 | 0.62 | 94 | 1010.4 |
| 20260501190056 | 64 | 289 | 13.0 | 26.1 | 0.02 | 0.09 | 0.09 | 95 | 1010.4 |
| 20260501185554 | 64 | 313 | 11.3 | 26.1 | 0.01 | 0.08 | 0.08 | 94 | 1007.1 |
| 20260501185054 | 63 | 44 | 14.8 | 23.5 | 0.01 | 0.08 | 0.08 | 94 | 1004.6 |
| 20260501184612 | 64 | 69 | 14.8 | 23.5 | 0.01 | 0.08 | 0.08 | 94 | 1004.9 |
| 20260501184052 | 64 | 70 | 13.9 | 20.9 | 0.02 | 0.08 | 0.08 | 95 | 1005.1 |
| 20260501183552 | 64 | 76 | 10.4 | 19.1 | 0.02 | 0.07 | 0.07 | 95 | 1005.7 |
| 20260501183101 | 64 | 73 | 8.7 | 16.5 | 0.03 | 0.07 | 0.07 | 95 | 1006.6 |
| 20260501182555 | 64 | 82 | 6.1 | 16.5 | 0.04 | 0.07 | 0.07 | 95 | 1006.8 |
| 20260501182054 | 64 | 80 | 9.6 | 14.8 | 0.04 | 0.07 | 0.07 | 95 | 1006.7 |
| 20260501181620 | 64 | 80 | 7.0 | 11.3 | 0.05 | 0.07 | 0.07 | 95 | 1007.5 |
| 20260501181051 | 64 | 56 | 4.3 | 12.2 | 0.06 | 0.07 | 0.07 | 95 | 1008.1 |
| 20260501180551 | 64 | 54 | 7.0 | 13.9 | 0.07 | 0.07 | 0.07 | 95 | 1008.2 |
| 20260501180101 | 64 | 93 | 6.1 | 13.9 | 0.07 | 0.07 | 0.07 | 95 | 1008.5 |
| 20260501175556 | 64 | 56 | 6.1 | 13.9 | 0.07 | 0.07 | 0.07 | 95 | 1008.4 |
| 20260501175056 | 64 | 65 | 7.8 | 16.5 | 0.07 | 0.07 | 0.07 | 95 | 1008.2 |
| 20260501174553 | 64 | 51 | 9.6 | 16.5 | 0.07 | 0.07 | 0.07 | 95 | 1007.9 |
| 20260501174056 | 64 | 55 | 8.7 | 13.9 | 0.06 | 0.06 | 0.06 | 95 | 1007.9 |
| 20260501173555 | 64 | 59 | 2.6 | 16.5 | 0.05 | 0.05 | 0.05 | 95 | 1008.7 |
| 20260501173056 | 64 | 5 | 6.1 | 16.5 | 0.04 | 0.04 | 0.04 | 95 | 1009.5 |
| 20260501172555 | 64 | 320 | 7.0 | 14.8 | 0.03 | 0.03 | 0.03 | 94 | 1009.3 |
| 20260501172053 | 64 | 23 | 7.0 | 16.5 | 0.03 | 0.03 | 0.03 | 94 | 1008.9 |
| 20260501171604 | 64 | 19 | 7.0 | 16.5 | 0.02 | 0.02 | 0.02 | 94 | 1008.5 |
| 20260501171057 | 64 | 65 | 7.8 | 16.5 | 0.01 | 0.01 | 0.01 | 93 | 1008.4 |
| 20260501170552 | 64 | 44 | 6.1 | 15.6 | 0.00 | 0.00 | 0.00 | 93 | 1008.6 |
| 20260501170107 | 64 | 57 | 8.7 | 15.6 | 0.00 | 0.00 | 0.00 | 93 | 1008.8 |
| 20260501165555 | 64 | 55 | 2.6 | 16.5 | 0.00 | 0.00 | 0.00 | 93 | 1009.2 |
| 20260501165055 | 64 | 48 | 7.0 | 16.5 | 0.00 | 0.00 | 0.00 | 93 | 1009.2 |
| 20260501164600 | 64 | 59 | 5.2 | 15.6 | 0.00 | 0.00 | 0.00 | 93 | 1009.1 |
| 20260501164055 | 64 | 35 | 6.1 | 11.3 | 0.00 | 0.00 | 0.00 | 92 | 1009.4 |
| 20260501163555 | 64 | 44 | 6.1 | 13.0 | 0.00 | 0.00 | 0.00 | 92 | 1009.6 |
| 20260501163056 | 64 | 19 | 7.0 | 13.9 | 0.00 | 0.00 | 0.00 | 92 | 1009.6 |
| 20260501162555 | 64 | 29 | 6.1 | 13.9 | 0.00 | 0.00 | 0.00 | 92 | 1009.4 |
| 20260501162054 | 64 | 27 | 5.2 | 13.9 | 0.00 | 0.00 | 0.00 | 92 | 1009.6 |
| 20260501161558 | 64 | 26 | 6.1 | 14.8 | 0.00 | 0.00 | 0.00 | 92 | 1009.8 |
| 20260501161055 | 64 | 33 | 7.8 | 14.8 | 0.00 | 0.00 | 0.00 | 92 | 1010.0 |
| 20260501160555 | 64 | 42 | 6.1 | 13.0 | 0.00 | 0.00 | 0.00 | 92 | 1010.0 |
| 20260501160054 | 64 | 15 | 7.0 | 13.9 | 0.00 | 0.00 | 0.00 | 92 | 1010.1 |
| 20260501155552 | 64 | 50 | 7.8 | 13.9 | 0.00 | 0.00 | 0.00 | 92 | 1010.1 |
| 20260501155057 | 64 | 32 | 6.1 | 20.0 | 0.00 | 0.00 | 0.00 | 92 | 1010.2 |
| 20260501154600 | 64 | 37 | 9.6 | 20.0 | 0.00 | 0.00 | 0.00 | 92 | 1010.1 |
| 20260501154054 | 64 | 13 | 12.2 | 20.0 | 0.00 | 0.00 | 0.00 | 92 | 1010.2 |
| 20260501153555 | 64 | 11 | 7.8 | 15.6 | 0.00 | 0.00 | 0.00 | 92 | 1010.4 |
| 20260501153118 | 65 | 31 | 8.7 | 18.2 | 0.00 | 0.00 | 0.00 | 92 | 1010.6 |
| 20260501152555 | 65 | 13 | 7.0 | 21.7 | 0.00 | 0.00 | 0.00 | 92 | 1010.7 |
| 20260501152052 | 65 | 30 | 12.2 | 21.7 | 0.00 | 0.00 | 0.00 | 91 | 1010.8 |
| 20260501151612 | 65 | 24 | 11.3 | 17.4 | 0.00 | 0.00 | 0.00 | 92 | 1010.7 |
| 20260501151054 | 65 | 26 | 7.8 | 13.0 | 0.00 | 0.00 | 0.00 | 92 | 1010.6 |
| 20260501150556 | 65 | 53 | 4.3 | 13.0 | 0.00 | 0.00 | 0.00 | 92 | 1010.2 |
| 20260501150058 | 65 | 47 | 5.2 | 13.0 | 0.00 | 0.00 | 0.00 | 92 | 1009.8 |
| 20260501145552 | 65 | 46 | 7.0 | 13.0 | 0.00 | 0.00 | 0.00 | 92 | 1009.8 |
| 20260501145056 | 65 | 23 | 6.1 | 16.5 | 0.00 | 0.00 | 0.00 | 92 | 1009.8 |
| 20260501144602 | 65 | 9 | 5.2 | 16.5 | 0.00 | 0.00 | 0.00 | 92 | 1009.8 |
| 20260501144052 | 65 | 38 | 6.1 | 16.5 | 0.00 | 0.00 | 0.00 | 92 | 1009.6 |
| 20260501143552 | 65 | 46 | 4.3 | 15.6 | 0.00 | 0.00 | 0.00 | 92 | 1009.5 |
| 20260501143053 | 65 | 79 | 7.0 | 19.1 | 0.00 | 0.00 | 0.00 | 92 | 1009.6 |
| 20260501142557 | 65 | 29 | 9.6 | 19.1 | 0.00 | 0.00 | 0.00 | 92 | 1009.6 |
| 20260501142058 | 65 | 42 | 7.8 | 14.8 | 0.00 | 0.00 | 0.00 | 92 | 1009.7 |
| 20260501141606 | 65 | 42 | 7.8 | 12.2 | 0.00 | 0.00 | 0.00 | 93 | 1009.9 |
| 20260501141052 | 65 | 30 | 6.1 | 12.2 | 0.00 | 0.00 | 0.00 | 93 | 1009.9 |
| 20260501140552 | 65 | 53 | 5.2 | 13.0 | 0.00 | 0.00 | 0.00 | 93 | 1010.0 |
| 20260501135555 | 65 | 59 | 7.8 | 13.9 | 0.00 | 0.00 | 0.00 | 94 | 1010.1 |
| 20260501135051 | 65 | 49 | 7.8 | 13.9 | 0.00 | 0.00 | 0.00 | 94 | 1010.2 |
| 20260501134604 | 65 | 9 | 7.0 | 13.9 | 0.00 | 0.00 | 0.00 | 94 | 1010.4 |
| 20260501134054 | 65 | 23 | 7.8 | 13.9 | 0.00 | 0.00 | 0.00 | 94 | 1010.4 |
| 20260501133553 | 65 | 24 | 7.8 | 14.8 | 0.00 | 0.00 | 0.00 | 94 | 1010.6 |